| time (UTC) | temp F | wind direction | speed MPH | gust MPH | rain 1hr in | rain 24hr in | rain mn in | humidity % | barometer mb |
| 20260505052824 | 73 | 130 | 1.0 | 10.0 | 0.00 | 0.00 | 0.00 | 77 | 1011.2 |
| 20260505051824 | 73 | 144 | 2.0 | 7.0 | 0.00 | 0.00 | 0.00 | 76 | 1011.1 |
| 20260505050823 | 74 | 179 | 2.0 | 7.0 | 0.00 | 0.00 | 0.00 | 76 | 1011.3 |
| 20260505040826 | 74 | 162 | 6.0 | 9.0 | 0.00 | 0.00 | 0.00 | 76 | 1011.1 |
| 20260505035827 | 75 | 186 | 3.0 | 8.0 | 0.00 | 0.00 | 0.00 | 75 | 1011.2 |
| 20260505034826 | 75 | 189 | 3.0 | 8.0 | 0.00 | 0.00 | 0.00 | 75 | 1011.4 |
| 20260505033826 | 75 | 204 | 4.0 | 9.0 | 0.00 | 0.00 | 0.00 | 75 | 1011.4 |
| 20260505032826 | 76 | 132 | 2.0 | 7.0 | 0.00 | 0.00 | 0.00 | 74 | 1011.3 |
| 20260505031826 | 76 | 159 | 0.0 | 9.0 | 0.00 | 0.00 | 0.00 | 74 | 1011.5 |
| 20260505030826 | 76 | 66 | 3.0 | 10.0 | 0.00 | 0.00 | 0.00 | 73 | 1011.4 |
| 20260505025826 | 76 | 208 | 3.0 | 10.0 | 0.00 | 0.00 | 0.00 | 73 | 1011.5 |
| 20260505024826 | 77 | 140 | 2.0 | 10.0 | 0.00 | 0.00 | 0.00 | 72 | 1011.4 |
| 20260505023826 | 77 | 151 | 6.0 | 12.0 | 0.00 | 0.00 | 0.00 | 72 | 1011.2 |
| 20260505022826 | 77 | 154 | 2.0 | 10.0 | 0.00 | 0.00 | 0.00 | 71 | 1011.4 |
| 20260505021826 | 77 | 137 | 4.0 | 8.0 | 0.00 | 0.00 | 0.00 | 71 | 1011.3 |
| 20260505020826 | 78 | 121 | 2.0 | 6.0 | 0.00 | 0.00 | 0.00 | 71 | 1011.5 |
| 20260505015825 | 78 | 161 | 0.0 | 3.0 | 0.00 | 0.00 | 0.00 | 70 | 1011.4 |
| 20260505014825 | 78 | 138 | 1.0 | 2.0 | 0.00 | 0.00 | 0.00 | 70 | 1011.3 |
| 20260505013825 | 78 | 200 | 0.0 | 2.0 | 0.00 | 0.00 | 0.00 | 69 | 1011.1 |
| 20260505012825 | 79 | 234 | 0.0 | 5.0 | 0.00 | 0.00 | 0.00 | 69 | 1010.9 |
| 20260505011825 | 79 | 132 | 1.0 | 5.0 | 0.00 | 0.00 | 0.00 | 68 | 1010.7 |
| 20260505010825 | 79 | 172 | 1.0 | 7.0 | 0.00 | 0.00 | 0.00 | 67 | 1010.7 |
| 20260505005825 | 80 | 159 | 2.0 | 9.0 | 0.00 | 0.00 | 0.00 | 67 | 1010.6 |
| 20260505004825 | 80 | 149 | 2.0 | 8.0 | 0.00 | 0.00 | 0.00 | 66 | 1010.9 |
| 20260505003825 | 80 | 207 | 0.0 | 7.0 | 0.00 | 0.00 | 0.00 | 66 | 1011.0 |
| 20260505002825 | 81 | 109 | 2.0 | 9.0 | 0.00 | 0.00 | 0.00 | 65 | 1010.9 |
| 20260505001825 | 82 | 188 | 2.0 | 10.0 | 0.00 | 0.00 | 0.00 | 64 | 1010.9 |
| 20260505000825 | 82 | 158 | 6.0 | 8.0 | 0.00 | 0.00 | 0.00 | 63 | 1010.9 |
| 20260504235825 | 82 | 119 | 8.0 | 9.0 | 0.00 | 0.00 | 0.00 | 62 | 1010.9 |
| 20260504234825 | 83 | 252 | 2.0 | 10.0 | 0.00 | 0.00 | 0.00 | 61 | 1010.9 |
| 20260504233825 | 83 | 184 | 1.0 | 6.0 | 0.00 | 0.00 | 0.00 | 60 | 1011.0 |
| 20260504232824 | 83 | 124 | 1.0 | 13.0 | 0.00 | 0.00 | 0.00 | 61 | 1011.0 |
| 20260504231824 | 84 | 136 | 3.0 | 10.0 | 0.00 | 0.00 | 0.00 | 59 | 1011.1 |
| 20260504230824 | 85 | 123 | 4.0 | 8.0 | 0.00 | 0.00 | 0.00 | 58 | 1011.3 |
| 20260504225824 | 85 | 94 | 1.0 | 8.0 | 0.00 | 0.00 | 0.00 | 59 | 1011.4 |
| 20260504224824 | 85 | 189 | 1.0 | 5.0 | 0.00 | 0.00 | 0.00 | 59 | 1011.5 |
| 20260504223824 | 85 | 146 | 0.0 | 8.0 | 0.00 | 0.00 | 0.00 | 58 | 1011.5 |
| 20260504222824 | 85 | 98 | 0.0 | 6.0 | 0.00 | 0.00 | 0.00 | 58 | 1011.9 |
| 20260504221824 | 86 | 277 | 0.0 | 9.0 | 0.00 | 0.00 | 0.00 | 56 | 1011.8 |
| 20260504220824 | 86 | 244 | 0.0 | 9.0 | 0.00 | 0.00 | 0.00 | 55 | 1012.0 |
| 20260504215824 | 87 | 80 | 8.0 | 9.0 | 0.00 | 0.00 | 0.00 | 56 | 1012.0 |
| 20260504214824 | 87 | 158 | 5.0 | 9.0 | 0.00 | 0.00 | 0.00 | 54 | 1012.1 |
| 20260504213823 | 88 | 57 | 2.0 | 10.0 | 0.00 | 0.00 | 0.00 | 54 | 1012.2 |
| 20260504212823 | 88 | 135 | 7.0 | 12.0 | 0.00 | 0.00 | 0.00 | 54 | 1012.3 |
| 20260504211823 | 88 | 163 | 5.0 | 9.0 | 0.00 | 0.00 | 0.00 | 54 | 1012.5 |
| 20260504210824 | 88 | 199 | 1.0 | 8.0 | 0.00 | 0.00 | 0.00 | 55 | 1012.5 |
| 20260504205823 | 88 | 128 | 8.0 | 10.0 | 0.00 | 0.00 | 0.00 | 55 | 1012.7 |
| 20260504204824 | 87 | 111 | 1.0 | 9.0 | 0.00 | 0.00 | 0.00 | 56 | 1012.6 |
| 20260504203823 | 86 | 140 | 3.0 | 9.0 | 0.00 | 0.00 | 0.00 | 58 | 1013.0 |
| 20260504202823 | 85 | 194 | 1.0 | 6.0 | 0.00 | 0.00 | 0.00 | 58 | 1013.2 |
| 20260504201823 | 85 | 195 | 1.0 | 9.0 | 0.00 | 0.00 | 0.00 | 58 | 1013.4 |
| 20260504200823 | 85 | 188 | 2.0 | 5.0 | 0.00 | 0.00 | 0.00 | 56 | 1013.7 |
| 20260504195823 | 85 | 125 | 2.0 | 8.0 | 0.00 | 0.00 | 0.00 | 59 | 1013.7 |
| 20260504194823 | 84 | 267 | 0.0 | 7.0 | 0.00 | 0.00 | 0.00 | 59 | 1013.9 |
| 20260504193853 | 83 | 134 | 1.0 | 8.0 | 0.00 | 0.00 | 0.00 | 60 | 1014.0 |
| 20260504192823 | 83 | 176 | 2.0 | 12.0 | 0.00 | 0.00 | 0.00 | 60 | 1014.3 |
| 20260504191822 | 82 | 153 | 1.0 | 9.0 | 0.00 | 0.00 | 0.00 | 61 | 1014.3 |
| 20260504190823 | 82 | 225 | 0.0 | 7.0 | 0.00 | 0.00 | 0.00 | 61 | 1014.4 |
| 20260504185822 | 81 | 223 | 1.0 | 7.0 | 0.00 | 0.00 | 0.00 | 63 | 1014.6 |
| 20260504184822 | 81 | 138 | 3.0 | 6.0 | 0.00 | 0.00 | 0.00 | 62 | 1014.9 |
| 20260504183822 | 81 | 285 | 4.0 | 10.0 | 0.00 | 0.00 | 0.00 | 62 | 1014.9 |
| 20260504182822 | 81 | 145 | 4.0 | 10.0 | 0.00 | 0.00 | 0.00 | 61 | 1014.9 |
| 20260504181822 | 80 | 213 | 0.0 | 11.0 | 0.00 | 0.00 | 0.00 | 63 | 1015.1 |
| 20260504180822 | 80 | 113 | 6.0 | 8.0 | 0.00 | 0.00 | 0.00 | 64 | 1015.2 |
| 20260504175822 | 79 | 126 | 8.0 | 12.0 | 0.00 | 0.00 | 0.00 | 63 | 1015.3 |
| 20260504174822 | 79 | 107 | 7.0 | 9.0 | 0.00 | 0.00 | 0.00 | 65 | 1015.4 |
| 20260504173821 | 78 | 165 | 2.0 | 6.0 | 0.00 | 0.00 | 0.00 | 64 | 1015.5 |
| 20260504172821 | 78 | 185 | 1.0 | 8.0 | 0.00 | 0.00 | 0.00 | 66 | 1015.6 |
| 20260504171821 | 77 | 132 | 1.0 | 5.0 | 0.00 | 0.00 | 0.00 | 64 | 1015.8 |
| 20260504170822 | 77 | 235 | 2.0 | 10.0 | 0.00 | 0.00 | 0.00 | 66 | 1016.1 |
| 20260504150820 | 70 | 81 | 4.0 | 11.0 | 0.00 | 0.00 | 0.00 | 73 | 1016.9 |
| 20260504140820 | 66 | 136 | 0.0 | 10.0 | 0.00 | 0.00 | 0.00 | 74 | 1017.0 |
| 20260504130819 | 63 | 151 | 3.0 | 6.0 | 0.00 | 0.00 | 0.00 | 75 | 1016.8 |
| 20260504081817 | 66 | 153 | 2.0 | 4.0 | 0.00 | 0.00 | 0.00 | 70 | 1017.2 |
| 20260504080817 | 66 | 184 | 0.0 | 3.0 | 0.00 | 0.00 | 0.00 | 69 | 1017.3 |